カタログに戻る

CZ-6A DEB

運用中SSO
NORAD 54928·DEBRIS·🇨🇳 China

打ち上げ Nov 11, 2022 から Taiyuan Satellite Launch Center

Loading…

次のパス (今後24時間)

TLE

最新Source: Space-Track

元期: Sep 14, 2026, 00:47 UTC

1 54928U 22151RR  26257.03302742  .00001553  00000-0  48352-3 0  9991
2 54928  98.6160 288.9223 0059680 104.2119 256.5709 14.41331733200646

AllMySatでCZ-6A DEBをリアルタイム追跡

Download on the App Store